Year,Month,Day,Hour,Minute,Value (Times are PST for temperature in C)
2008,07,20,00,00,12.10
2008,07,20,00,01,12.00
2008,07,20,00,02,12.00
2008,07,20,00,03,12.00
2008,07,20,00,04,12.00
2008,07,20,00,05,12.00
2008,07,20,00,06,12.00
2008,07,20,00,07,12.00
2008,07,20,00,08,12.00
2008,07,20,00,09,12.00
2008,07,20,00,10,12.00
2008,07,20,00,11,11.90
2008,07,20,00,12,11.90
2008,07,20,00,13,11.90
2008,07,20,00,14,11.90
2008,07,20,00,15,11.90
2008,07,20,00,16,11.90
2008,07,20,00,17,11.90
2008,07,20,00,18,11.90
2008,07,20,00,19,11.90
2008,07,20,00,20,11.90
2008,07,20,00,21,11.90
2008,07,20,00,22,11.90
2008,07,20,00,23,11.90
2008,07,20,00,24,11.90
2008,07,20,00,25,11.90
2008,07,20,00,26,11.90
2008,07,20,00,27,11.90
2008,07,20,00,28,11.90
2008,07,20,00,29,11.90
2008,07,20,00,30,11.80
2008,07,20,00,31,11.80
2008,07,20,00,32,11.80
2008,07,20,00,33,11.80
2008,07,20,00,34,11.80
2008,07,20,00,35,11.80
2008,07,20,00,36,11.80
2008,07,20,00,37,11.80
2008,07,20,00,38,11.80
2008,07,20,00,39,11.80
2008,07,20,00,40,11.80
2008,07,20,00,41,11.80
2008,07,20,00,42,11.70
2008,07,20,00,43,11.70
2008,07,20,00,44,11.70
2008,07,20,00,45,11.70
2008,07,20,00,46,11.70
2008,07,20,00,47,11.70
2008,07,20,00,48,11.70
2008,07,20,00,49,11.70
2008,07,20,00,50,11.70
2008,07,20,00,51,11.60
2008,07,20,00,52,11.60
2008,07,20,00,53,11.60
2008,07,20,00,54,11.60
2008,07,20,00,55,11.60
2008,07,20,00,56,11.60
2008,07,20,00,57,11.60
2008,07,20,00,58,11.60
2008,07,20,00,59,11.60
2008,07,20,01,00,11.60
2008,07,20,01,01,11.60
2008,07,20,01,02,11.60
2008,07,20,01,03,11.60
2008,07,20,01,04,11.60
2008,07,20,01,05,11.60
2008,07,20,01,06,11.60
2008,07,20,01,07,11.60
2008,07,20,01,08,11.60
2008,07,20,01,09,11.60
2008,07,20,01,10,11.50
2008,07,20,01,11,11.40
2008,07,20,01,12,11.40
2008,07,20,01,13,11.40
2008,07,20,01,14,11.40
2008,07,20,01,15,11.40
2008,07,20,01,16,11.40
2008,07,20,01,17,11.40
2008,07,20,01,18,11.40
2008,07,20,01,19,11.40
2008,07,20,01,20,11.40
2008,07,20,01,21,11.40
2008,07,20,01,22,11.40
2008,07,20,01,23,11.30
2008,07,20,01,24,11.30
2008,07,20,01,25,11.30
2008,07,20,01,26,11.30
2008,07,20,01,27,11.20
2008,07,20,01,28,11.20
2008,07,20,01,29,11.30
2008,07,20,01,30,11.30
2008,07,20,01,31,11.30
2008,07,20,01,32,11.30
2008,07,20,01,33,11.30
2008,07,20,01,34,11.30
2008,07,20,01,35,11.30
2008,07,20,01,36,11.20
2008,07,20,01,37,11.20
2008,07,20,01,38,11.20
2008,07,20,01,39,11.20
2008,07,20,01,40,11.20
2008,07,20,01,41,11.20
2008,07,20,01,42,11.20
2008,07,20,01,43,11.20
2008,07,20,01,44,11.10
2008,07,20,01,45,11.10
2008,07,20,01,46,11.10
2008,07,20,01,47,11.10
2008,07,20,01,48,11.10
2008,07,20,01,49,11.10
2008,07,20,01,50,11.10
2008,07,20,01,51,11.10
2008,07,20,01,52,11.00
2008,07,20,01,53,10.90
2008,07,20,01,54,10.90
2008,07,20,01,55,10.90
2008,07,20,01,56,10.90
2008,07,20,01,57,10.90
2008,07,20,01,58,10.90
2008,07,20,01,59,10.90
2008,07,20,02,00,10.90
2008,07,20,02,01,10.90
2008,07,20,02,02,10.90
2008,07,20,02,03,10.90
2008,07,20,02,04,10.90
2008,07,20,02,05,10.90
2008,07,20,02,06,10.90
2008,07,20,02,07,10.90
2008,07,20,02,08,10.90
2008,07,20,02,09,10.90
2008,07,20,02,10,10.80
2008,07,20,02,11,10.80
2008,07,20,02,12,10.80
2008,07,20,02,13,10.80
2008,07,20,02,14,10.80
2008,07,20,02,15,10.80
2008,07,20,02,16,10.80
2008,07,20,02,17,10.80
2008,07,20,02,18,10.80
2008,07,20,02,19,10.80
2008,07,20,02,20,10.70
2008,07,20,02,21,10.70
2008,07,20,02,22,10.70
2008,07,20,02,23,10.70
2008,07,20,02,24,10.70
2008,07,20,02,25,10.70
2008,07,20,02,26,10.70
2008,07,20,02,27,10.70
2008,07,20,02,28,10.70
2008,07,20,02,29,10.70
2008,07,20,02,30,10.70
2008,07,20,02,31,10.70
2008,07,20,02,32,10.70
2008,07,20,02,33,10.70
2008,07,20,02,34,10.70
2008,07,20,02,35,10.70
2008,07,20,02,36,10.70
2008,07,20,02,37,10.70
2008,07,20,02,38,10.60
2008,07,20,02,39,10.60
2008,07,20,02,40,10.60
2008,07,20,02,41,10.60
2008,07,20,02,42,10.60
2008,07,20,02,43,10.60
2008,07,20,02,44,10.60
2008,07,20,02,45,10.60
2008,07,20,02,46,10.60
2008,07,20,02,47,10.60
2008,07,20,02,48,10.60
2008,07,20,02,49,10.60
2008,07,20,02,50,10.40
2008,07,20,02,51,10.40
2008,07,20,02,52,10.40
2008,07,20,02,53,10.40
2008,07,20,02,54,10.40
2008,07,20,02,55,10.40
2008,07,20,02,56,10.40
2008,07,20,02,57,10.40
2008,07,20,02,58,10.40
2008,07,20,02,59,10.40
2008,07,20,03,00,10.40
2008,07,20,03,01,10.40
2008,07,20,03,02,10.40
2008,07,20,03,03,10.40
2008,07,20,03,04,10.40
2008,07,20,03,05,10.40
2008,07,20,03,06,10.40
2008,07,20,03,07,10.40
2008,07,20,03,08,10.40
2008,07,20,03,09,10.40
2008,07,20,03,10,10.40
2008,07,20,03,11,10.30
2008,07,20,03,12,10.30
2008,07,20,03,13,10.30
2008,07,20,03,14,10.30
2008,07,20,03,15,10.30
2008,07,20,03,16,10.20
2008,07,20,03,17,10.20
2008,07,20,03,18,10.20
2008,07,20,03,19,10.20
2008,07,20,03,20,10.20
2008,07,20,03,21,10.20
2008,07,20,03,22,10.20
2008,07,20,03,23,10.20
2008,07,20,03,24,10.20
2008,07,20,03,25,10.20
2008,07,20,03,26,10.20
2008,07,20,03,27,10.10
2008,07,20,03,28,10.10
2008,07,20,03,29,10.10
2008,07,20,03,30,10.10
2008,07,20,03,31,10.10
2008,07,20,03,32,10.10
2008,07,20,03,33,10.10
2008,07,20,03,34,10.10
2008,07,20,03,35,10.10
2008,07,20,03,36,10.10
2008,07,20,03,37,10.10
2008,07,20,03,38,10.10
2008,07,20,03,39,10.10
2008,07,20,03,40,10.10
2008,07,20,03,41,10.10
2008,07,20,03,42,10.10
2008,07,20,03,43,10.10
2008,07,20,03,44,10.10
2008,07,20,03,45,10.10
2008,07,20,03,46,10.10
2008,07,20,03,47,10.10
2008,07,20,03,48,10.10
2008,07,20,03,49,10.10
2008,07,20,03,50,10.10
2008,07,20,03,51,10.10
2008,07,20,03,52,10.10
2008,07,20,03,53,10.10
2008,07,20,03,54,10.10
2008,07,20,03,55,10.10
2008,07,20,03,56,10.10
2008,07,20,03,57,10.10
2008,07,20,03,58,10.10
2008,07,20,03,59,10.10
2008,07,20,04,00,10.10
2008,07,20,04,01,10.10
2008,07,20,04,02,10.10
2008,07,20,04,03,10.10
2008,07,20,04,04,10.10
2008,07,20,04,05,10.10
2008,07,20,04,06,10.10
2008,07,20,04,07,10.10
2008,07,20,04,08,10.10
2008,07,20,04,09,10.10
2008,07,20,04,10,10.10
2008,07,20,04,11,10.10
2008,07,20,04,12,10.10
2008,07,20,04,13,10.10
2008,07,20,04,14,10.10
2008,07,20,04,15,10.10
2008,07,20,04,16,10.10
2008,07,20,04,17,10.10
2008,07,20,04,18,10.10
2008,07,20,04,19,10.10
2008,07,20,04,20,10.10
2008,07,20,04,21,10.10
2008,07,20,04,22,10.10
2008,07,20,04,23,10.10
2008,07,20,04,24,10.10
2008,07,20,04,25,10.10
2008,07,20,04,26,10.10
2008,07,20,04,27,10.10
2008,07,20,04,28,10.10
2008,07,20,04,29,10.10
2008,07,20,04,30,10.10
2008,07,20,04,31,10.10
2008,07,20,04,32,10.10
2008,07,20,04,33,10.10
2008,07,20,04,34,10.10
2008,07,20,04,35,9.90
2008,07,20,04,36,9.90
2008,07,20,04,37,9.90
2008,07,20,04,38,9.90
2008,07,20,04,39,9.90
2008,07,20,04,40,9.90
2008,07,20,04,41,9.90
2008,07,20,04,42,9.90
2008,07,20,04,43,9.90
2008,07,20,04,44,9.80
2008,07,20,04,45,9.80
2008,07,20,04,46,9.80
2008,07,20,04,47,9.80
2008,07,20,04,48,9.80
2008,07,20,04,49,9.70
2008,07,20,04,50,9.70
2008,07,20,04,51,9.70
2008,07,20,04,52,9.70
2008,07,20,04,53,9.70
2008,07,20,04,54,9.70
2008,07,20,04,55,9.70
2008,07,20,04,56,9.70
2008,07,20,04,57,9.70
2008,07,20,04,58,9.70
2008,07,20,04,59,9.70
2008,07,20,05,00,9.70
2008,07,20,05,01,9.70
2008,07,20,05,02,9.70
2008,07,20,05,03,9.70
2008,07,20,05,04,9.70
2008,07,20,05,05,9.70
2008,07,20,05,06,9.70
2008,07,20,05,07,9.70
2008,07,20,05,08,9.60
2008,07,20,05,09,9.60
2008,07,20,05,10,9.60
2008,07,20,05,11,9.60
2008,07,20,05,12,9.60
2008,07,20,05,13,9.60
2008,07,20,05,14,9.60
2008,07,20,05,15,9.50
2008,07,20,05,16,9.50
2008,07,20,05,17,9.50
2008,07,20,05,18,9.50
2008,07,20,05,19,9.50
2008,07,20,05,20,9.50
2008,07,20,05,21,9.50
2008,07,20,05,22,9.50
2008,07,20,05,23,9.40
2008,07,20,05,24,9.40
2008,07,20,05,25,9.40
2008,07,20,05,26,9.40
2008,07,20,05,27,9.40
2008,07,20,05,28,9.40
2008,07,20,05,29,9.40
2008,07,20,05,30,9.40
2008,07,20,05,31,9.40
2008,07,20,05,32,9.40
2008,07,20,05,33,9.40
2008,07,20,05,34,9.40
2008,07,20,05,35,9.40
2008,07,20,05,36,9.40
2008,07,20,05,37,9.40
2008,07,20,05,38,9.40
2008,07,20,05,39,9.40
2008,07,20,05,40,9.30
2008,07,20,05,41,9.30
2008,07,20,05,42,9.30
2008,07,20,05,43,9.30
2008,07,20,05,44,9.30
2008,07,20,05,45,9.30
2008,07,20,05,46,9.30
2008,07,20,05,47,9.30
2008,07,20,05,48,9.30
2008,07,20,05,49,9.30
2008,07,20,05,50,9.30
2008,07,20,05,51,9.30
2008,07,20,05,52,9.30
2008,07,20,05,53,9.30
2008,07,20,05,54,9.30
2008,07,20,05,55,9.30
2008,07,20,05,56,9.30
2008,07,20,05,57,9.30
2008,07,20,05,58,9.30
2008,07,20,05,59,9.30
2008,07,20,06,00,9.30
2008,07,20,06,01,9.30
2008,07,20,06,02,9.40
2008,07,20,06,03,9.40
2008,07,20,06,04,9.40
2008,07,20,06,05,9.40
2008,07,20,06,06,9.40
2008,07,20,06,07,9.40
2008,07,20,06,08,9.40
2008,07,20,06,09,9.40
2008,07,20,06,10,9.40
2008,07,20,06,11,9.40
2008,07,20,06,12,9.40
2008,07,20,06,13,9.40
2008,07,20,06,14,9.40
2008,07,20,06,15,9.40
2008,07,20,06,16,9.40
2008,07,20,06,17,9.40
2008,07,20,06,18,9.40
2008,07,20,06,19,9.40
2008,07,20,06,20,9.40
2008,07,20,06,21,9.40
2008,07,20,06,22,9.40
2008,07,20,06,23,9.40
2008,07,20,06,24,9.40
2008,07,20,06,25,9.40
2008,07,20,06,26,9.40
2008,07,20,06,27,9.40
2008,07,20,06,28,9.40
2008,07,20,06,29,9.40
2008,07,20,06,30,9.40
2008,07,20,06,31,9.40
2008,07,20,06,32,9.40
2008,07,20,06,33,9.40
2008,07,20,06,34,9.40
2008,07,20,06,35,9.40
2008,07,20,06,36,9.40
2008,07,20,06,37,9.40
2008,07,20,06,38,9.50
2008,07,20,06,39,9.50
2008,07,20,06,40,9.50
2008,07,20,06,41,9.50
2008,07,20,06,42,9.50
2008,07,20,06,43,9.50
2008,07,20,06,44,9.60
2008,07,20,06,45,9.60
2008,07,20,06,46,9.60
2008,07,20,06,47,9.60
2008,07,20,06,48,9.60
2008,07,20,06,49,9.60
2008,07,20,06,50,9.60
2008,07,20,06,51,9.60
2008,07,20,06,52,9.60
2008,07,20,06,53,9.60
2008,07,20,06,54,9.60
2008,07,20,06,55,9.60
2008,07,20,06,56,9.60
2008,07,20,06,57,9.70
2008,07,20,06,58,9.70
2008,07,20,06,59,9.70
2008,07,20,07,00,9.70
2008,07,20,07,01,9.70
2008,07,20,07,02,9.70
2008,07,20,07,03,9.70
2008,07,20,07,04,9.70
2008,07,20,07,05,9.80
2008,07,20,07,06,9.80
2008,07,20,07,07,9.80
2008,07,20,07,08,9.90
2008,07,20,07,09,9.90
2008,07,20,07,10,9.90
2008,07,20,07,11,9.90
2008,07,20,07,12,9.90
2008,07,20,07,13,10.00
2008,07,20,07,14,10.10
2008,07,20,07,15,10.10
2008,07,20,07,16,10.10
2008,07,20,07,17,10.10
2008,07,20,07,18,10.10
2008,07,20,07,19,10.20
2008,07,20,07,20,10.20
2008,07,20,07,21,10.20
2008,07,20,07,22,10.20
2008,07,20,07,23,10.30
2008,07,20,07,24,10.30
2008,07,20,07,25,10.40
2008,07,20,07,26,10.40
2008,07,20,07,27,10.40
2008,07,20,07,28,10.40
2008,07,20,07,29,10.50
2008,07,20,07,30,10.60
2008,07,20,07,31,10.60
2008,07,20,07,32,10.60
2008,07,20,07,33,10.60
2008,07,20,07,34,10.70
2008,07,20,07,35,10.70
2008,07,20,07,36,10.80
2008,07,20,07,37,10.80
2008,07,20,07,38,10.90
2008,07,20,07,39,10.90
2008,07,20,07,40,11.00
2008,07,20,07,41,11.10
2008,07,20,07,42,11.10
2008,07,20,07,43,11.10
2008,07,20,07,44,11.20
2008,07,20,07,45,11.20
2008,07,20,07,46,11.30
2008,07,20,07,47,11.40
2008,07,20,07,48,11.40
2008,07,20,07,49,11.50
2008,07,20,07,50,11.60
2008,07,20,07,51,11.60
2008,07,20,07,52,11.60
2008,07,20,07,53,11.70
2008,07,20,07,54,11.80
2008,07,20,07,55,11.80
2008,07,20,07,56,11.80
2008,07,20,07,57,11.90
2008,07,20,07,58,11.90
2008,07,20,07,59,12.00
2008,07,20,08,00,12.00
2008,07,20,08,01,12.10
2008,07,20,08,02,12.10
2008,07,20,08,03,12.20
2008,07,20,08,04,12.30
2008,07,20,08,05,12.30
2008,07,20,08,06,12.30
2008,07,20,08,07,12.40
2008,07,20,08,08,12.40
2008,07,20,08,09,12.50
2008,07,20,08,10,12.50
2008,07,20,08,11,12.60
2008,07,20,08,12,12.60
2008,07,20,08,13,12.60
2008,07,20,08,14,12.70
2008,07,20,08,15,12.70
2008,07,20,08,16,12.70
2008,07,20,08,17,12.80
2008,07,20,08,18,12.80
2008,07,20,08,19,12.80
2008,07,20,08,20,12.80
2008,07,20,08,21,12.90
2008,07,20,08,22,12.90
2008,07,20,08,23,13.00
2008,07,20,08,24,13.10
2008,07,20,08,25,13.10
2008,07,20,08,26,13.20
2008,07,20,08,27,13.30
2008,07,20,08,28,13.30
2008,07,20,08,29,13.30
2008,07,20,08,30,13.40
2008,07,20,08,31,13.50
2008,07,20,08,32,13.60
2008,07,20,08,33,13.70
2008,07,20,08,34,13.70
2008,07,20,08,35,13.80
2008,07,20,08,36,13.90
2008,07,20,08,37,13.90
2008,07,20,08,38,14.00
2008,07,20,08,39,14.20
2008,07,20,08,40,14.20
2008,07,20,08,41,14.30
2008,07,20,08,42,14.30
2008,07,20,08,43,14.40
2008,07,20,08,44,14.50
2008,07,20,08,45,14.60
2008,07,20,08,46,14.60
2008,07,20,08,47,14.70
2008,07,20,08,48,14.70
2008,07,20,08,49,14.70
2008,07,20,08,50,14.80
2008,07,20,08,51,14.80
2008,07,20,08,52,14.80
2008,07,20,08,53,14.80
2008,07,20,08,54,14.90
2008,07,20,08,55,14.90
2008,07,20,08,56,15.00
2008,07,20,08,57,15.00
2008,07,20,08,58,15.00
2008,07,20,08,59,15.10
2008,07,20,09,00,15.10
2008,07,20,09,01,15.20
2008,07,20,09,02,15.20
2008,07,20,09,03,15.20
2008,07,20,09,04,15.20
2008,07,20,09,05,15.30
2008,07,20,09,06,15.30
2008,07,20,09,07,15.30
2008,07,20,09,08,15.30
2008,07,20,09,09,15.30
2008,07,20,09,10,15.30
2008,07,20,09,11,15.30
2008,07,20,09,12,15.30
2008,07,20,09,13,15.40
2008,07,20,09,14,15.40
2008,07,20,09,15,15.50
2008,07,20,09,16,15.50
2008,07,20,09,17,15.50
2008,07,20,09,18,15.60
2008,07,20,09,19,15.60
2008,07,20,09,20,15.60
2008,07,20,09,21,15.70
2008,07,20,09,22,15.70
2008,07,20,09,23,15.70
2008,07,20,09,24,15.80
2008,07,20,09,25,15.80
2008,07,20,09,26,15.80
2008,07,20,09,27,15.90
2008,07,20,09,28,16.00
2008,07,20,09,29,16.10
2008,07,20,09,30,16.10
2008,07,20,09,31,16.20
2008,07,20,09,32,16.20
2008,07,20,09,33,16.20
2008,07,20,09,34,16.30
2008,07,20,09,35,16.30
2008,07,20,09,36,16.30
2008,07,20,09,37,16.40
2008,07,20,09,38,16.40
2008,07,20,09,39,16.40
2008,07,20,09,40,16.40
2008,07,20,09,41,16.40
2008,07,20,09,42,16.50
2008,07,20,09,43,16.60
2008,07,20,09,44,16.60
2008,07,20,09,45,16.60
2008,07,20,09,46,16.60
2008,07,20,09,47,16.60
2008,07,20,09,48,16.70
2008,07,20,09,49,16.70
2008,07,20,09,50,16.70
2008,07,20,09,51,16.70
2008,07,20,09,52,16.70
2008,07,20,09,53,16.70
2008,07,20,09,54,16.70
2008,07,20,09,55,16.70
2008,07,20,09,56,16.70
2008,07,20,09,57,16.70
2008,07,20,09,58,16.80
2008,07,20,09,59,16.80
2008,07,20,10,00,16.80
2008,07,20,10,01,16.90
2008,07,20,10,02,16.90
2008,07,20,10,03,16.90
2008,07,20,10,04,17.00
2008,07,20,10,05,17.00
2008,07,20,10,06,17.00
2008,07,20,10,07,17.00
2008,07,20,10,08,17.00
2008,07,20,10,09,17.00
2008,07,20,10,10,17.00
2008,07,20,10,11,17.10
2008,07,20,10,12,17.10
2008,07,20,10,13,17.10
2008,07,20,10,14,17.10
2008,07,20,10,15,17.10
2008,07,20,10,16,17.20
2008,07,20,10,17,17.20
2008,07,20,10,18,17.30
2008,07,20,10,19,17.30
2008,07,20,10,20,17.40
2008,07,20,10,21,17.40
2008,07,20,10,22,17.50
2008,07,20,10,23,17.50
2008,07,20,10,24,17.60
2008,07,20,10,25,17.60
2008,07,20,10,26,17.70
2008,07,20,10,27,17.70
2008,07,20,10,28,17.70
2008,07,20,10,29,17.70
2008,07,20,10,30,17.70
2008,07,20,10,31,17.70
2008,07,20,10,32,17.70
2008,07,20,10,33,17.70
2008,07,20,10,34,17.70
2008,07,20,10,35,17.70
2008,07,20,10,36,17.70
2008,07,20,10,37,17.70
2008,07,20,10,38,17.70
2008,07,20,10,39,17.70
2008,07,20,10,40,17.80
2008,07,20,10,41,17.80
2008,07,20,10,42,17.90
2008,07,20,10,43,17.90
2008,07,20,10,44,17.90
2008,07,20,10,45,17.90
2008,07,20,10,46,18.00
2008,07,20,10,47,18.10
2008,07,20,10,48,18.10
2008,07,20,10,49,18.10
2008,07,20,10,50,18.20
2008,07,20,10,51,18.20
2008,07,20,10,52,18.20
2008,07,20,10,53,18.20
2008,07,20,10,54,18.20
2008,07,20,10,55,18.20
2008,07,20,10,56,18.20
2008,07,20,10,57,18.30
2008,07,20,10,58,18.30
2008,07,20,10,59,18.30
2008,07,20,11,00,18.40
2008,07,20,11,01,18.50
2008,07,20,11,02,18.50
2008,07,20,11,03,18.60
2008,07,20,11,04,18.60
2008,07,20,11,05,18.70
2008,07,20,11,06,18.70
2008,07,20,11,07,18.70
2008,07,20,11,08,18.70
2008,07,20,11,09,18.80
2008,07,20,11,10,18.80
2008,07,20,11,11,18.80
2008,07,20,11,12,18.80
2008,07,20,11,13,18.90
2008,07,20,11,14,18.90
2008,07,20,11,15,18.90
2008,07,20,11,16,18.80
2008,07,20,11,17,18.80
2008,07,20,11,18,18.80
2008,07,20,11,19,18.80
2008,07,20,11,20,18.80
2008,07,20,11,21,18.80
2008,07,20,11,22,18.80
2008,07,20,11,23,18.90
2008,07,20,11,24,18.90
2008,07,20,11,25,18.90
2008,07,20,11,26,18.90
2008,07,20,11,27,18.90
2008,07,20,11,28,18.90
2008,07,20,11,29,18.90
2008,07,20,11,30,18.90
2008,07,20,11,31,19.00
2008,07,20,11,32,19.10
2008,07,20,11,33,19.10
2008,07,20,11,34,19.10
2008,07,20,11,35,19.10
2008,07,20,11,36,19.20
2008,07,20,11,37,19.20
2008,07,20,11,38,19.20
2008,07,20,11,39,19.20
2008,07,20,11,40,19.20
2008,07,20,11,41,19.20
2008,07,20,11,42,19.30
2008,07,20,11,43,19.30
2008,07,20,11,44,19.30
2008,07,20,11,45,19.30
2008,07,20,11,46,19.30
2008,07,20,11,47,19.30
2008,07,20,11,48,19.30
2008,07,20,11,49,19.40
2008,07,20,11,50,19.40
2008,07,20,11,51,19.40
2008,07,20,11,52,19.40
2008,07,20,11,53,19.40
2008,07,20,11,54,19.50
2008,07,20,11,55,19.50
2008,07,20,11,56,19.50
2008,07,20,11,57,19.60
2008,07,20,11,58,19.60
2008,07,20,11,59,19.60
2008,07,20,12,00,19.60
2008,07,20,12,01,19.60
2008,07,20,12,02,19.70
2008,07,20,12,03,19.70
2008,07,20,12,04,19.70
2008,07,20,12,05,19.70
2008,07,20,12,06,19.80
2008,07,20,12,07,19.80
2008,07,20,12,08,19.90
2008,07,20,12,09,19.90
2008,07,20,12,10,19.90
2008,07,20,12,11,20.00
2008,07,20,12,12,20.10
2008,07,20,12,13,20.10
2008,07,20,12,14,20.20
2008,07,20,12,15,20.20
2008,07,20,12,16,20.20
2008,07,20,12,17,20.20
2008,07,20,12,18,20.20
2008,07,20,12,19,20.20
2008,07,20,12,20,20.20
2008,07,20,12,21,20.20
2008,07,20,12,22,20.30
2008,07,20,12,23,20.30
2008,07,20,12,24,20.30
2008,07,20,12,25,20.40
2008,07,20,12,26,20.40
2008,07,20,12,27,20.40
2008,07,20,12,28,20.50
2008,07,20,12,29,20.50
2008,07,20,12,30,20.60
2008,07,20,12,31,20.70
2008,07,20,12,32,20.70
2008,07,20,12,33,20.80
2008,07,20,12,34,20.80
2008,07,20,12,35,20.80
2008,07,20,12,36,20.90
2008,07,20,12,37,20.90
2008,07,20,12,38,21.00
2008,07,20,12,39,21.00
2008,07,20,12,40,21.00
2008,07,20,12,41,21.00
2008,07,20,12,42,21.10
2008,07,20,12,43,21.10
2008,07,20,12,44,21.20
2008,07,20,12,45,21.20
2008,07,20,12,46,21.20
2008,07,20,12,47,21.30
2008,07,20,12,48,21.30
2008,07,20,12,49,21.30
2008,07,20,12,50,21.30
2008,07,20,12,51,21.30
2008,07,20,12,52,21.30
2008,07,20,12,53,21.30
2008,07,20,12,54,21.30
2008,07,20,12,55,21.30
2008,07,20,12,56,21.30
2008,07,20,12,57,21.30
2008,07,20,12,58,21.40
2008,07,20,12,59,21.40
2008,07,20,13,00,21.50
2008,07,20,13,01,21.60
2008,07,20,13,02,21.60
2008,07,20,13,03,21.70
2008,07,20,13,04,21.80
2008,07,20,13,05,22.00
2008,07,20,13,06,22.00
2008,07,20,13,07,22.10
2008,07,20,13,08,22.20
2008,07,20,13,09,22.30
2008,07,20,13,10,22.30
2008,07,20,13,11,22.40
2008,07,20,13,12,22.40
2008,07,20,13,13,22.50
2008,07,20,13,14,22.60
2008,07,20,13,15,22.70
2008,07,20,13,16,22.80
2008,07,20,13,17,22.90
2008,07,20,13,18,22.90
2008,07,20,13,19,22.90
2008,07,20,13,20,22.90
2008,07,20,13,21,23.00
2008,07,20,13,22,23.10
2008,07,20,13,23,23.20
2008,07,20,13,24,23.30
2008,07,20,13,25,23.30
2008,07,20,13,26,23.30
2008,07,20,13,27,23.40
2008,07,20,13,28,23.50
2008,07,20,13,29,23.60
2008,07,20,13,30,23.70
2008,07,20,13,31,23.70
2008,07,20,13,32,23.80
2008,07,20,13,33,23.80
2008,07,20,13,34,23.80
2008,07,20,13,35,23.70
2008,07,20,13,36,23.70
2008,07,20,13,37,23.70
2008,07,20,13,38,23.60
2008,07,20,13,39,23.60
2008,07,20,13,40,23.60
2008,07,20,13,41,23.40
2008,07,20,13,42,23.40
2008,07,20,13,43,23.40
2008,07,20,13,44,23.40
2008,07,20,13,45,23.40
2008,07,20,13,46,23.40
2008,07,20,13,47,23.60
2008,07,20,13,48,23.70
2008,07,20,13,49,23.90
2008,07,20,13,50,24.10
2008,07,20,13,51,24.20
2008,07,20,13,52,24.40
2008,07,20,13,53,24.40
2008,07,20,13,54,24.50
2008,07,20,13,55,24.50
2008,07,20,13,56,24.50
2008,07,20,13,57,24.60
2008,07,20,13,58,24.60
2008,07,20,13,59,24.60
2008,07,20,14,00,24.60
2008,07,20,14,01,24.50
2008,07,20,14,02,24.40
2008,07,20,14,03,24.40
2008,07,20,14,04,24.30
2008,07,20,14,05,24.20
2008,07,20,14,06,24.10
2008,07,20,14,07,24.10
2008,07,20,14,08,24.20
2008,07,20,14,09,24.30
2008,07,20,14,10,24.30
2008,07,20,14,11,24.30
2008,07,20,14,12,24.40
2008,07,20,14,13,24.40
2008,07,20,14,14,24.40
2008,07,20,14,15,24.40
2008,07,20,14,16,24.40
2008,07,20,14,17,24.40
2008,07,20,14,18,24.40
2008,07,20,14,19,24.40
2008,07,20,14,20,24.40
2008,07,20,14,21,24.30
2008,07,20,14,22,24.30
2008,07,20,14,23,24.30
2008,07,20,14,24,24.40
2008,07,20,14,25,24.40
2008,07,20,14,26,24.50
2008,07,20,14,27,24.50
2008,07,20,14,28,24.60
2008,07,20,14,29,24.60
2008,07,20,14,30,24.50
2008,07,20,14,31,24.50
2008,07,20,14,32,24.50
2008,07,20,14,33,24.50
2008,07,20,14,34,24.40
2008,07,20,14,35,24.30
2008,07,20,14,36,24.30
2008,07,20,14,37,24.30
2008,07,20,14,38,24.30
2008,07,20,14,39,24.30
2008,07,20,14,40,24.40
2008,07,20,14,41,24.40
2008,07,20,14,42,24.40
2008,07,20,14,43,24.30
2008,07,20,14,44,24.30
2008,07,20,14,45,24.30
2008,07,20,14,46,24.30
2008,07,20,14,47,24.40
2008,07,20,14,48,24.40
2008,07,20,14,49,24.50
2008,07,20,14,50,24.50
2008,07,20,14,51,24.60
2008,07,20,14,52,24.70
2008,07,20,14,53,24.80
2008,07,20,14,54,24.90
2008,07,20,14,55,25.00
2008,07,20,14,56,25.10
2008,07,20,14,57,25.10
2008,07,20,14,58,25.20
2008,07,20,14,59,25.30
2008,07,20,15,00,25.40
2008,07,20,15,01,25.50
2008,07,20,15,02,25.60
2008,07,20,15,03,25.60
2008,07,20,15,04,25.60
2008,07,20,15,05,25.60
2008,07,20,15,06,25.60
2008,07,20,15,07,25.50
2008,07,20,15,08,25.50
2008,07,20,15,09,25.50
2008,07,20,15,10,25.50
2008,07,20,15,11,25.60
2008,07,20,15,12,25.80
2008,07,20,15,13,25.90
2008,07,20,15,14,26.10
2008,07,20,15,15,26.30
2008,07,20,15,16,26.40
2008,07,20,15,17,26.50
2008,07,20,15,18,26.60
2008,07,20,15,19,26.70
2008,07,20,15,20,26.80
2008,07,20,15,21,26.80
2008,07,20,15,22,26.80
2008,07,20,15,23,26.90
2008,07,20,15,24,26.90
2008,07,20,15,25,26.90
2008,07,20,15,26,26.90
2008,07,20,15,27,26.90
2008,07,20,15,28,26.90
2008,07,20,15,29,26.90
2008,07,20,15,30,26.90
2008,07,20,15,31,26.90
2008,07,20,15,32,26.90
2008,07,20,15,33,26.80
2008,07,20,15,34,26.80
2008,07,20,15,35,26.80
2008,07,20,15,36,26.90
2008,07,20,15,37,26.90
2008,07,20,15,38,26.90
2008,07,20,15,39,26.80
2008,07,20,15,40,26.90
2008,07,20,15,41,26.90
2008,07,20,15,42,26.90
2008,07,20,15,43,26.90
2008,07,20,15,44,26.90
2008,07,20,15,45,26.90
2008,07,20,15,46,27.00
2008,07,20,15,47,27.10
2008,07,20,15,48,27.20
2008,07,20,15,49,27.30
2008,07,20,15,50,27.30
2008,07,20,15,51,27.30
2008,07,20,15,52,27.30
2008,07,20,15,53,27.30
2008,07,20,15,54,27.30
2008,07,20,15,55,27.30
2008,07,20,15,56,27.30
2008,07,20,15,57,27.30
2008,07,20,15,58,27.30
2008,07,20,15,59,27.30
2008,07,20,16,00,27.30
2008,07,20,16,01,27.20
2008,07,20,16,02,27.20
2008,07,20,16,03,27.20
2008,07,20,16,04,27.10
2008,07,20,16,05,27.00
2008,07,20,16,06,26.90
2008,07,20,16,07,26.80
2008,07,20,16,08,26.70
2008,07,20,16,09,26.60
2008,07,20,16,10,26.60
2008,07,20,16,11,26.60
2008,07,20,16,12,26.60
2008,07,20,16,13,26.60
2008,07,20,16,14,26.50
2008,07,20,16,15,26.40
2008,07,20,16,16,26.30
2008,07,20,16,17,26.30
2008,07,20,16,18,26.20
2008,07,20,16,19,26.10
2008,07,20,16,20,26.10
2008,07,20,16,21,26.00
2008,07,20,16,22,25.90
2008,07,20,16,23,25.90
2008,07,20,16,24,25.90
2008,07,20,16,25,25.80
2008,07,20,16,26,25.80
2008,07,20,16,27,25.70
2008,07,20,16,28,25.70
2008,07,20,16,29,25.60
2008,07,20,16,30,25.60
2008,07,20,16,31,25.60
2008,07,20,16,32,25.60
2008,07,20,16,33,25.50
2008,07,20,16,34,25.50
2008,07,20,16,35,25.50
2008,07,20,16,36,25.50
2008,07,20,16,37,25.50
2008,07,20,16,38,25.50
2008,07,20,16,39,25.50
2008,07,20,16,40,25.50
2008,07,20,16,41,25.50
2008,07,20,16,42,25.50
2008,07,20,16,43,25.40
2008,07,20,16,44,25.40
2008,07,20,16,45,25.40
2008,07,20,16,46,25.40
2008,07,20,16,47,25.40
2008,07,20,16,48,25.40
2008,07,20,16,49,25.40
2008,07,20,16,50,25.40
2008,07,20,16,51,25.40
2008,07,20,16,52,25.40
2008,07,20,16,53,25.40
2008,07,20,16,54,25.40
2008,07,20,16,55,25.40
2008,07,20,16,56,25.40
2008,07,20,16,57,25.40
2008,07,20,16,58,25.40
2008,07,20,16,59,25.40
2008,07,20,17,00,25.40
2008,07,20,17,01,25.30
2008,07,20,17,02,25.30
2008,07,20,17,03,25.30
2008,07,20,17,04,25.20
2008,07,20,17,05,25.20
2008,07,20,17,06,25.20
2008,07,20,17,07,25.10
2008,07,20,17,08,25.10
2008,07,20,17,09,25.10
2008,07,20,17,10,25.10
2008,07,20,17,11,25.00
2008,07,20,17,12,25.00
2008,07,20,17,13,25.00
2008,07,20,17,14,25.00
2008,07,20,17,15,25.00
2008,07,20,17,16,25.00
2008,07,20,17,17,25.00
2008,07,20,17,18,25.00
2008,07,20,17,19,25.00
2008,07,20,17,20,25.00
2008,07,20,17,21,25.00
2008,07,20,17,22,25.00
2008,07,20,17,23,25.00
2008,07,20,17,24,25.00
2008,07,20,17,25,25.00
2008,07,20,17,26,25.00